Location: Newark
(29.9790°N, 31.1340°E)
Time: 23:36:37
(UTC+00:00)

N. Korean satellite - Visible Passes

Search period start: 08 December 2019 00:00
Search period end: 18 December 2019 00:00
Orbit: 456 x 506 km, 97.2° (Epoch: 07 December)

Date Brightness Start Highest point End Pass type
(mag) Time Alt. Az. Time Alt. Az. Time Alt. Az.
08 Dec 9.8 02:50:50 10° ENE 02:52:47 14° E 02:54:43 10° SE visible
09 Dec 6.7 03:57:23 10° N 04:00:47 48° WNW 04:04:07 10° SSW visible
09 Dec 9.9 16:01:10 10° SW 16:03:27 16° W 16:05:45 10° WNW visible
10 Dec 7.0 03:31:56 10° NNE 03:35:24 63° E 03:38:47 10° S visible
10 Dec 8.6 15:34:32 10° SSW 15:37:57 35° W 15:41:22 10° NNW visible
11 Dec 8.9 03:07:00 10° NE 03:09:55 25° E 03:12:47 10° SSE visible
12 Dec 10.1 02:43:32 10° E 02:44:22 11° E 02:45:11 10° ESE visible
12 Dec 7.5 04:14:48 10° NNW 04:17:45 26° WNW 04:20:40 10° SW visible
13 Dec 6.4 03:48:58 10° N 03:52:25 66° WNW 03:55:49 10° SSW visible
13 Dec 9.6 15:52:17 10° SW 15:55:04 20° W 15:57:51 10° NW visible
14 Dec 7.6 03:23:39 10° NNE 03:27:00 45° E 03:30:17 10° S visible
14 Dec 7.9 15:26:02 10° S 15:29:35 46° W 15:33:08 10° NNW visible
15 Dec 9.4 02:58:58 10° NE 03:01:29 19° E 03:03:58 10° SE visible
16 Dec 7.1 04:06:14 10° N 04:09:23 34° WNW 04:12:30 10° SW visible
16 Dec 10.2 16:10:53 10° WSW 16:12:13 12° W 16:13:32 10° WNW visible
17 Dec 6.4 03:40:33 10° N 03:44:00 89° ENE 03:47:25 10° SSW visible
17 Dec 9.2 15:43:33 10° SSW 15:46:40 26° W 15:49:46 10° NW visible
